This is the latest recevied weather packets stored in our database for station/object KD4WLE. If no packets are shown the sender has not sent any weather packets the latest 10 day(s).
| Time | Temp. | Humidity | Pressure | Rain* | Wind** | Luminosity | Snow |
|---|---|---|---|---|---|---|---|
| 1777769247 | 21.11° C | 97% | 1011.7 hPa | 0 mm | - | 0 W/m² | - |
| 1777768946 | 20.56° C | 98% | 1011.6 hPa | 0 mm | - | 0 W/m² | - |
| 1777768643 | 20.56° C | 99% | 1011.4 hPa | 0 mm | - | 0 W/m² | - |
| 1777768340 | 20.56° C | 99% | 1011.3 hPa | 0 mm | - | 0 W/m² | - |
| 1777768037 | 20.56° C | 99% | 1011.5 hPa | 0 mm | - | 0 W/m² | - |
| 1777767734 | 20.56° C | 99% | 1011.1 hPa | 0 mm | - | 0 W/m² | - |
| 1777767430 | 20.56° C | 99% | 1010.6 hPa | 0 mm | - | 0 W/m² | - |
| 1777767126 | 20.56° C | 99% | 1010.9 hPa | 0 mm | - | 0 W/m² | - |
| 1777766824 | 20.56° C | 99% | 1010.8 hPa | 0 mm | - | 0 W/m² | - |
| 1777766522 | 20.56° C | 99% | 1011 hPa | 0 mm | - | 0 W/m² | - |
| 1777766218 | 20.56° C | 99% | 1011.1 hPa | 0 mm | - | 1 W/m² | - |
| 1777765916 | 20.56° C | 99% | 1010.9 hPa | 0 mm | - | 1 W/m² | - |
| 1777765612 | 20.56° C | 99% | 1011.2 hPa | 0 mm | - | 2 W/m² | - |
| 1777765309 | 20.56° C | 99% | 1011.3 hPa | 0 mm | - | 3 W/m² | - |
| 1777765005 | 20.56° C | 99% | 1011 hPa | 0 mm | - | 3 W/m² | - |
| 1777764702 | 20° C | 99% | 1010.5 hPa | 0 mm | - | 5 W/m² | - |
| 1777764398 | 20° C | 99% | 1011.2 hPa | 0 mm | - | 9 W/m² | - |
| 1777764096 | 20° C | 99% | 1010.8 hPa | 0 mm | - | 13 W/m² | - |
| 1777763792 | 20° C | 99% | 1010.9 hPa | 0 mm | - | 14 W/m² | - |
| 1777763490 | 20° C | 99% | 1010.5 hPa | 0 mm | - | 14 W/m² | - |
| 1777763188 | 20° C | 99% | 1010.1 hPa | 0 mm | - | 16 W/m² | - |
| 1777762886 | 20° C | 99% | 1010 hPa | 0 mm | - | 13 W/m² | - |
| 1777762581 | 20° C | 99% | 1009.9 hPa | 0 mm | - | 12 W/m² | - |
| 1777762279 | 20° C | 99% | 1010.6 hPa | 0 mm | - | 12 W/m² | - |
| 1777761975 | 20° C | 99% | 1010.7 hPa | 0 mm | - | 16 W/m² | - |
* Rain latest hour (hover to see other rain measurements)
** Current wind speed in m/s (hover to see current wind gust speed)